Rush City, MN

4:56 AM CST on February 10, 2016 (GMT -0600)
Rush City Regional

Weather History for KROS - November, 2011

Change the Weather History Date:

Tuesday, November 8, 2011

  Actual Average (KCBG) Record (KCBG)
Temperature  
Mean Temperature 34 °F -  
Max Temperature 46 °F 42 °F 71 °F (1999)
Min Temperature 21 °F 26 °F 1 °F (1991)
Degree Days  
Heating Degree Days 32    
Moisture  
Dew Point 23 °F    
Average Humidity 69    
Maximum Humidity 94    
Minimum Humidity 38    
Precipitation  
Precipitation 0.00 in - - ()
Sea Level Pressure  
Sea Level Pressure 30.19 in    
Wind  
Wind Speed 1 mph (North)    
Max Wind Speed 6 mph    
Max Gust Speed -    
Visibility 10 miles    
Events      
Averages and records for this station are not official NWS values.
T = Trace of Precipitation, MM = Missing Value Source: NWS Daily Summary

Daily Weather History Graph

Daily Weather History Graph

Search for Another Location

Airport or City:

Trip Planner

Search our weather history database for the weather conditions in past years. The results will help you decide how hot, cold, wet, or windy it might be!

Date:

Astronomy

Nov. 08, 2011 Rise Set
Actual Time 7:01 AM CST 4:49 PM CST
Civil Twilight 6:29 AM CST 5:20 PM CST
Nautical Twilight 5:54 AM CST 5:56 PM CST
Astronomical Twilight 5:19 AM CST 6:31 PM CST
Moon 3:31 PM CST (11/8) 4:57 AM CST (11/8)
Length of Visible Light 10h 51m
Length of Day
9h 47m
Waxing Gibbous, 96% of the Moon is Illuminated
Nov 8
Waxing Gibbous
Nov 10
Full
Nov 18
Last Quarter
Nov 25
New
Dec 2
First Quarter

Hourly Weather History & Observations

Time (CST) Temp. Windchill Dew Point Humidity Pressure Visibility Wind Dir Wind Speed Gust Speed Precip Events Conditions
12:14 AM 29.3 °F - 25.3 °F 85% 30.22 in 10.0 mi Calm Calm - N/A   Clear
12:34 AM 28.8 °F - 24.8 °F 85% 30.22 in 10.0 mi Calm Calm - N/A   Clear
12:54 AM 29.1 °F - 25.3 °F 86% 30.22 in 10.0 mi Calm Calm - N/A   Clear
1:13 AM 28.8 °F - 24.4 °F 84% 30.21 in 10.0 mi Calm Calm - N/A   Clear
1:34 AM 27.1 °F - 23.7 °F 87% 30.21 in 10.0 mi Calm Calm - N/A   Clear
1:54 AM 27.0 °F - 24.4 °F 90% 30.21 in 10.0 mi Calm Calm - N/A   Clear
2:34 AM 26.1 °F - 24.1 °F 92% 30.22 in 10.0 mi Calm Calm - N/A   Clear
2:54 AM 26.2 °F - 23.2 °F 88% 30.21 in 10.0 mi Calm Calm - N/A   Clear
3:14 AM 23.4 °F - 20.7 °F 89% 30.20 in 10.0 mi Calm Calm - N/A   Clear
3:34 AM 21.6 °F - 19.2 °F 91% 30.20 in 10.0 mi Calm Calm - N/A   Clear
4:14 AM 22.8 °F - 21.0 °F 93% 30.21 in 10.0 mi Calm Calm - N/A   Clear
4:34 AM 22.8 °F - 20.7 °F 91% 30.21 in 10.0 mi Calm Calm - N/A   Clear
4:54 AM 23.4 °F - 21.4 °F 92% 30.20 in 10.0 mi Calm Calm - N/A   Clear
5:14 AM 21.9 °F - 19.9 °F 92% 30.21 in 10.0 mi Calm Calm - N/A   Clear
5:34 AM 22.8 °F - 21.2 °F 93% 30.21 in 10.0 mi Calm Calm - N/A   Clear
5:54 AM 22.5 °F - 20.1 °F 91% 30.21 in 10.0 mi Calm Calm - N/A   Clear
6:14 AM 22.3 °F - 20.5 °F 93% 30.20 in 10.0 mi Calm Calm - N/A   Clear
6:34 AM 21.6 °F - 19.4 °F 91% 30.20 in 10.0 mi Calm Calm - N/A   Clear
6:54 AM 22.3 °F - 20.7 °F 93% 30.19 in 10.0 mi Calm Calm - N/A   Clear
7:14 AM 21.0 °F - 19.6 °F 94% 30.20 in 10.0 mi Calm Calm - N/A   Clear
7:34 AM 21.4 °F - 19.8 °F 93% 30.20 in 10.0 mi Calm Calm - N/A   Clear
8:14 AM 23.0 °F - 21.4 °F 94% 30.21 in 10.0 mi Calm Calm - N/A   Clear
8:34 AM 27.9 °F - 26.1 °F 93% 30.21 in 10.0 mi Calm Calm - N/A   Clear
8:53 AM 31.8 °F - 28.8 °F 88% 30.22 in 10.0 mi Calm Calm - N/A   Clear
9:14 AM 34.5 °F - 29.3 °F 81% 30.22 in 10.0 mi Calm Calm - N/A   Clear
9:34 AM 35.4 °F 32.6 °F 29.7 °F 80% 30.21 in 10.0 mi NNE 3.5 mph - N/A   Clear
9:53 AM 37.6 °F 33.1 °F 30.0 °F 74% 30.21 in 10.0 mi NNE 5.8 mph - N/A   Clear
10:14 AM 39.2 °F 35.9 °F 29.7 °F 69% 30.21 in 10.0 mi North 4.6 mph - N/A   Scattered Clouds
10:34 AM 40.6 °F 36.7 °F 28.2 °F 61% 30.21 in 10.0 mi NE 5.8 mph - N/A   Clear
10:54 AM 41.2 °F - 27.3 °F 58% 30.22 in 10.0 mi Calm Calm - N/A   Clear
11:14 AM 43.0 °F 41.3 °F 26.8 °F 53% 30.21 in 10.0 mi NE 3.5 mph - N/A   Clear
11:34 AM 43.3 °F 40.7 °F 25.7 °F 50% 30.20 in 10.0 mi NE 4.6 mph - N/A   Clear
11:54 AM 44.6 °F 42.2 °F 25.7 °F 48% 30.19 in 10.0 mi NNE 4.6 mph - N/A   Clear
12:14 PM 44.6 °F 43.1 °F 25.0 °F 46% 30.19 in 10.0 mi NNE 3.5 mph - N/A   Scattered Clouds
12:34 PM 45.7 °F 44.4 °F 24.6 °F 44% 30.18 in 10.0 mi East 3.5 mph - N/A   Clear
12:53 PM 45.5 °F 44.2 °F 23.4 °F 42% 30.18 in 10.0 mi NNW 3.5 mph - N/A   Clear
1:14 PM 45.9 °F 44.6 °F 22.8 °F 40% 30.18 in 10.0 mi NNW 3.5 mph - N/A   Clear
1:34 PM 46.2 °F 44.1 °F 23.4 °F 41% 30.16 in 10.0 mi NNE 4.6 mph - N/A   Clear
2:14 PM 46.4 °F 44.3 °F 22.5 °F 39% 30.14 in 10.0 mi NNE 4.6 mph - N/A   Clear
2:34 PM 46.4 °F 43.5 °F 22.5 °F 39% 30.14 in 10.0 mi NNW 5.8 mph - N/A   Clear
2:54 PM 46.4 °F 44.3 °F 21.9 °F 38% 30.15 in 10.0 mi NNW 4.6 mph - N/A   Clear
3:14 PM 46.2 °F 43.3 °F 21.6 °F 38% 30.14 in 10.0 mi North 5.8 mph - N/A   Clear
3:34 PM 45.3 °F 42.3 °F 21.9 °F 40% 30.14 in 10.0 mi North 5.8 mph - N/A   Clear
3:54 PM 45.5 °F 43.2 °F 21.7 °F 39% 30.15 in 10.0 mi North 4.6 mph - N/A   Clear
4:14 PM 44.4 °F 42.0 °F 21.9 °F 41% 30.15 in 10.0 mi North 4.6 mph - N/A   Clear
4:34 PM 42.4 °F 40.7 °F 21.2 °F 43% 30.15 in 10.0 mi North 3.5 mph - N/A   Clear
4:54 PM 40.6 °F 38.6 °F 21.7 °F 47% 30.15 in 10.0 mi North 3.5 mph - N/A   Clear
5:14 PM 39.2 °F 37.0 °F 21.7 °F 50% 30.16 in 10.0 mi North 3.5 mph - N/A   Clear
5:34 PM 38.8 °F 36.5 °F 21.7 °F 50% 30.16 in 10.0 mi North 3.5 mph - N/A   Clear
5:54 PM 40.3 °F - 21.9 °F 48% 30.16 in 10.0 mi Calm Calm - N/A   Clear
6:14 PM 38.7 °F 36.3 °F 22.5 °F 52% 30.16 in 10.0 mi North 3.5 mph - N/A   Clear
6:34 PM 37.6 °F 35.1 °F 23.4 °F 57% 30.16 in 10.0 mi North 3.5 mph - N/A   Clear
6:54 PM 37.8 °F 35.3 °F 23.7 °F 57% 30.16 in 10.0 mi North 3.5 mph - N/A   Clear
7:14 PM 38.5 °F 36.1 °F 23.2 °F 54% 30.17 in 10.0 mi North 3.5 mph - N/A   Clear
7:34 PM 37.8 °F 35.3 °F 23.4 °F 56% 30.16 in 10.0 mi North 3.5 mph - N/A   Clear
7:54 PM 37.4 °F 34.9 °F 23.2 °F 57% 30.15 in 10.0 mi NNE 3.5 mph - N/A   Clear
8:14 PM 37.4 °F 34.9 °F 23.0 °F 56% 30.15 in 10.0 mi NNE 3.5 mph - N/A   Clear
8:34 PM 37.9 °F 34.4 °F 22.8 °F 55% 30.15 in 10.0 mi NNE 4.6 mph - N/A   Clear
8:54 PM 37.4 °F - 22.8 °F 56% 30.15 in 10.0 mi Calm Calm - N/A   Clear
9:14 PM 37.8 °F 35.3 °F 23.0 °F 55% 30.15 in 10.0 mi NE 3.5 mph - N/A   Clear
9:34 PM 36.3 °F - 23.0 °F 59% 30.16 in 10.0 mi Calm Calm - N/A   Clear
9:54 PM 35.1 °F - 22.8 °F 61% 30.17 in 10.0 mi Calm Calm - N/A   Clear
10:14 PM 32.0 °F - 23.4 °F 70% 30.17 in 10.0 mi Calm Calm - N/A   Clear
10:34 PM 31.1 °F - 23.4 °F 73% 30.16 in 10.0 mi Calm Calm - N/A   Clear
11:14 PM 31.6 °F - 23.9 °F 73% 30.15 in 10.0 mi Calm Calm - N/A   Clear
11:33 PM 30.9 °F - 23.9 °F 75% 30.15 in 10.0 mi Calm Calm - N/A   Clear
11:54 PM 31.8 °F - 23.9 °F 73% 30.15 in 10.0 mi Calm Calm - N/A   Clear